User: anonymous   Login
Location: Brno
(49.2000°N, 16.6330°E)
Time: 15:52:33
(UTC+02:00)
Language:

Cosmos 2227 - Orbit

View from above orbital plane
View from above orbital plane
View from above satellite
View from above satellite

Ground track
Ground track

The orbit data is extracted from the following two-line orbital elements,

1 22284U 92093A   15212.20076835 -.00000199  00000-0 -80740-4 0  9997
2 22284 070.9754 235.5981 0017280 139.4184 220.8230 14.13227387165583
Epoch (UTC): 31 July 2015 04:49:06
Eccentricity: 0.0017280
inclination: 70.9754°
perigee height: 836 km
apogee height: 861 km
right ascension of ascending node: 235.5981°
argument of perigee: 139.4184°
revolutions per day: 14.13227387
mean anomaly at epoch: 220.8230°
orbit number at epoch: 16558

The dashed part of the orbit path shows where the satellite is in the earth's shadow,  

DLR